www.pogodaiklimat.ru

Погода и климат >> Архив погоды >> Монголия >> Улаангом


ПОГОДА в Улаангоме

  • Прогноз погоды в Улаангоме
  • Монитор погоды в Улаангоме

АРХИВ ПОГОДЫ в Улаангоме

Время (UTC), дата Ветер
(напр.,м/с)
 
Видим.   Явления Облачность Т
(С)
Тd
(С)
f
(%)
Тe
(С)
Тes
(С)
Комфортность P
(гПа)
Po
(гПа)
Тmin
(С)
Tmax
(С)
R
(мм)
R24
(мм)
S
(см)
21 15.08 ЮЗ 3 50 км мгла 8/0
[Ac lent]
+14.3 +8.9 70 +13 +13 1008.6 902.2
00 16.08 Ю 1 50 км в посл. час дождь 10/0 600 м
[As op]
+15.4 +11.0 75 +16 +16 1007.3 901.4 +13.2 0.0
03 16.08 СЗ 2 50 км слаб. дождь 10/0 600 м
[As op]
+17.8 +11.1 65 +18 +20 1006.5 901.5
06 16.08 СВ 1 50 км {дождь} 10/9 600 м
[Frnb Ac lent]
+19.4 +12.7 65 +22 +22 комфорт 1005.2 900.9
09 16.08 С 2 50 км 6/5 600 м
[Cu med, cong Ac lent]
+23.6 +10.3 43 +25 +28 комфорт 1004.5 901.7
12 16.08 Ю 2 50 км 6/4 1000 м
[Cu hum Ci]
+22.1 +10.3 47 +24 +24 комфорт 1005.6 902.2 +23.8 0.4
15 16.08 ЮЗ 3 50 км 5/0
[Ac lent]
+17.3 +9.7 61 +17 +17 1009.3 903.9
18 16.08 Ю 1 50 км 5/0
[As trans]
+12.7 +9.9 83 +13 +13 1012.2 904.9
21 16.08 ЮЗ 3 50 км 4/0
[As trans]
+12.4 +9.0 80 +11 +11 1013.0 905.5
00 17.08 ЮЗ 2 50 км 8/0
[Ac lent Ci]
+13.8 +9.8 77 +13 +14 1013.3 906.2 +10.9
03 17.08 В 2 50 км 8/3 600 м
[Cu med, cong Ac cast Ci sp]
+20.1 +9.9 52 +22 +26 комфорт 1011.2 906.5
06 17.08 В 2 50 км 8/4 600 м
[Frnb As trans]
+23.1 +6.0 33 +24 +29 комфорт 1008.8 905.4
09 17.08 В 2 50 км 6/6 600 м
[Cu med, cong]
+24.0 +6.7 33 +24 +27 комфорт 1007.5 904.5
12 17.08 Ю 3 50 км 6/5 600 м
[Cu med, cong Ac lent Ci]
+22.3 +4.4 31 +22 +23 комфорт 1008.4 904.8 +24.4
15 17.08 З 2 50 км 6/0
[Ac lent]
+17.7 +6.9 49 +18 +18 1010.8 905.4
18 17.08 З 2 50 км 8/6 600 м
[Sc Ac lent]
+15.1 +8.8 66 +15 +15 1012.2 905.7
21 17.08 С 1 50 км 8/8 600 м
[Sc]
+15.8 +8.5 62 +17 +17 1011.8 905.6
00 18.08 З 4 50 км слаб. дождь 10/0 600 м
[As op]
+14.8 +10.2 74 +14 +14 1012.6 906.0 +14.6 0.5
03 18.08 З 3 50 км слаб. дождь 10/0 600 м
[As op]
+14.7 +9.7 72 +14 +15 1012.5 905.8
06 18.08 Ю 2 50 км {дождь} 9/9 600 м
[Sc]
+17.3 +10.0 62 +18 +19 1010.0 904.5
09 18.08 В 2 50 км в посл. час дождь 10/10 600 м
[Sc As op]
+16.4 +9.1 62 +17 +17 1009.9 904.1
12 18.08 С 2 50 км слаб. дождь 10/0 600 м
[As op]
+13.8 +9.8 77 +13 +13 1012.6 905.6 +17.5 3
15 18.08 З 2 н/о в посл. час дождь 8/8 600 м
[Sc]
+13.2 +9.3 77 +13 +13 1013.6 906.3
18 18.08 Ю 3 н/о {дождь} 8/8 600 м
[Sc]
+12.8 +10.5 86 +11 +11 1014.1 906.6
21 18.08 Ю 3 н/о 8/8 1000 м
[Sc]
+12.7 +10.1 84 +11 +11 1014.8 907.2
00 19.08 С 1 50 км 8/8 600 м
[Sc]
+13.8 +8.6 71 +14 +14 1016.3 908.9 +12.2 0.3
03 19.08 С 3 50 км 8/5 1000 м
[Cu med, cong Ac trans]
+19.2 +6.7 44 +20 +22 1015.3 909.9
06 19.08 С 4 50 км 8/8 600 м
[Sc]
+21.4 +5.3 35 +22 +24 комфорт 1014.5 909.9
09 19.08 С 5 50 км 8/8 1000 м
[Cu med, cong]
+22.4 +3.0 28 +22 +23 комфорт 1014.0 909.8
12 19.08 Ю 2 50 км 6/6 1000 м
[Sc]
+19.3 +7.1 45 +21 +21 комфорт 1015.7 910.3 +22.6
15 19.08 Ю 1 50 км 3/0
[As trans]
+11.7 +9.3 85 +12 +12 1020.5 911.9
18 19.08 Ю 3 50 км ясно +10.4 +8.0 85 +8 +8 1021.3 912.2
21 19.08 З 1 50 км ясно +9.7 +6.6 81 +9 +9 1021.5 912.1
00 20.08 З 1 50 км 6/0
[Ac lent Cs]
+12.1 +6.4 68 +12 +13 1020.8 912.3 +9.1
03 20.08 СЗ 4 50 км 6/4 600 м
[Cu med, cong Ac trans Cs]
+17.2 +9.6 61 +17 +20 1018.3 911.9
06 20.08 В 2 50 км 6/6 600 м
[Cu med, cong]
+20.9 +9.2 47 +23 +29 комфорт 1014.7 909.9
09 20.08 СВ 2 50 км 6/5 600 м
[Cu med, cong Ac cuf]
+20.9 +7.5 42 +23 +26 комфорт 1012.6 908.1
12 20.08 В 2 50 км 5/3 1000 м
[Cu hum Ac cuf]
+19.9 +7.0 43 +21 +22 комфорт 1012.1 907.3 +21.7
15 20.08 З 2 50 км 6/6 600 м
[Sc]
+16.8 +9.2 61 +17 +17 1013.4 907.4
18 20.08 СЗ 2 50 км 6/0
[Ac lent]
+15.7 +9.4 66 +16 +16 1014.1 907.6
21 20.08 Ю 4 50 км 8/8 1000 м
[Sc]
+11.8 +9.0 83 +10 +10 1015.0 907.0
00 21.08 СЗ 3 50 км 8/5 1000 м
[Sc Ac trans]
+14.7 +8.2 65 +14 +14 1014.6 907.7 +10.5
03 21.08 С 4 50 км 8/5 600 м
[Sc As op]
+17.5 +7.3 51 +17 +19 1013.9 908.1
06 21.08 Ю 2 50 км 5/5 600 м
[Cu hum]
+21.2 +8.5 44 +22 +29 комфорт 1011.2 906.9
09 21.08 Ю 2 50 км 6/4 600 м
[Cu med, cong Ci fib]
+23.4 +6.7 34 +24 +28 комфорт 1009.3 905.9
12 21.08 Ю 2 50 км 6/4 600 м
[Cu med, cong Ci sp]
+21.0 +5.4 36 +22 +23 комфорт 1010.3 906.0 +24.2
15 21.08 Ю 1 н/о 5/0
[Ac lent]
+12.8 +8.5 75 +13 +13 1014.4 906.9
18 21.08 Ю 3 н/о 3/0
[Ci]
+10.6 +8.2 85 +9 +9 1015.1 906.7
21 21.08 Ю 1 н/о 4/0
[Ac cast]
+9.6 +6.9 83 +9 +9 1014.8 906.1
00 22.08 З 1 50 км 5/4 600 м
[Cu med, cong Ac lent]
+12.5 +8.6 77 +13 +13 1014.0 906.4 +8.6
03 22.08 штиль 0 50 км 6/0
[Ac lent Cs]
+18.8 +10.1 57 +19 +26 1010.9 905.8
06 22.08 ЮВ 1 50 км 6/0
[Ac lent Cs]
+22.2 +9.0 43 +24 +34 комфорт 1007.7 904.1
09 22.08 В 2 50 км 8/4 1000 м
[Cu med, cong Ac lent Ci]
+23.2 +8.9 40 +25 +27 комфорт 1005.3 902.3
12 22.08 ЮВ 1 50 км 8/0
[As op Ci]
+21.2 +9.4 47 +23 +23 комфорт 1004.6 901.0 +24.1
15 22.08 З 1 50 км ясно +16.2 +10.7 70 +17 +17 1006.6 901.1
18 22.08 Ю 3 50 км 3/0
[Ci ing]
+13.2 +9.6 79 +12 +12 1007.0 900.4

 

Местоположение метеостанции Улаангом (Монголия): широта 49.80 долгота 92.08 высота над уровнем моря 939 м.

В архиве по умолчанию представлена погода в Улаангоме за последнюю неделю. Архивные данные за месяц целиком и за предыдущие месяцы, начиная с января 2011 года, Вы можете получить, выбрав интересующий диапазон дат из раскрывающегося списка и нажав кнопку "Ввод!".


*Определитесь, кто Вы:
робот инопланетянин человек

Внимание! Время в таблицах - всемирное. Для получения местного времени необходимо прибавить поправку, которая равна 8 ч.

Смотрите также архив погоды в соседних городах и на ближайших метеорологических станциях:

Погода в Умнегове (Монголия) (91 км)
Погода в Хандагайты (Тува, Россия) (105 км)
Погода в Ногооннууре (Монголия) (126 км)
Погода в Завхане (Монголия) (132 км)
Погода в Мугур-Аксы (Тува, Россия) (134 км)
Погода в Баруунтурууне (Монголия) (168 км)
Погода в Чадане (Тува, Россия) (168 км)
Погода в Углие (Монголия) (183 км)
Погода в Шагонаре (Тува, Россия) (186 км)
Погода в Тээли (Тува, Россия) (190 км)

Пояснения к столбцам:

Ветер - указаны скорость ветра в м/с - средняя за 10 мин, порывы в срок и между сроками (в фигурных скобках) и направление, откуда дует ветер: С - северный, СВ - северо-восточный, В - восточный, ЮВ - юго-восточный, Ю - южный, ЮЗ - юго-западный, З - западный, СЗ - северо-западный.
Видимость - горизонтальная дальность видимости в метрах или километрах. При видимости от 1 до 10 км при отсутствии осадков обычно наблюдается дымка, при ухудшении видимости до 1 км и менее - туман. В сухую погоду видимость может ухудшаться дымом, пылью или мглою.
Явления - указаны атмосферные явления, наблюдавшиеся в срок или в последний час перед сроком; фигурными скобками обозначены явления, наблюдавшиеся между сроками (за 1-3 часа до срока); квадратными скобками обозначены град или гололедные отложения с указанием их диаметра в мм.
Облачность - указаны через наклонную черту общая и нижняя облачность в баллах и высота нижней границы облаков в метрах; квадратными скобками обозначены формы облаков: Ci - перистые, Cs - перисто-слоистые, Cc - перисто-кучевые, Ac - высококучевые, As - высокослоистые, Sc - слоисто-кучевые, Ns - слоисто-дождевые, Cu - кучевые, Cb - кучево-дождевые. Подробнее классификацию облаков см. в Атласе облаков (PDF).
T - Температура воздуха - температура, измеренная на высоте 2 м над землей.
Td - Температура точки росы - температура, при понижении до которой содержащийся в воздухе водяной пар достигнет насыщения.
f - Относительная влажность воздуха - влажноcть воздуха, измеренная на высоте 2 м над землей.
Te - Эффективная температура - температура, которую ощущает одетый по сезону человек в тени. Характеристика душности погоды. При расчете учитывается влияние влажности воздуха и скорости ветра на теплоощущения человека.
Tes - Эффективная температура на солнце - температура, которую ощущает человек, с поправкой на солнечный нагрев. Характеристика знойности погоды. Зависит от высоты солнца над горизонтом, облачности и скорости ветра. Ночью, в пасмурную погоду, а также при ветре 12 м/с и более поправка равна нулю.
P - Атмосферное давление - приведенное к уровню моря атмосферное давление.
Po - Атмосферное давление - измеренное на уровне метеостанции атмосферное давление.
Tmin - Минимальная температура - минимум температуры воздуха на высоте 2 м над землей.
Tmax - Максимальная температура - максимум температуры воздуха на высоте 2 м над землей.
R - Количество осадков - Количество выпавших осадков за период времени, мм. При наведении курсора мыши на число - период времени, за который выпало указанное количество осадков.
R24 - Количество осадков - Количество выпавших осадков за 24 часа, мм.
S - Снежный покров - Высота снежного покрова, см. При наведении курсора мыши на число - состояние снежного покрова и степень покрытия местности в баллах.